Location: Borkenes
(68.7830°N, 16.1830°E)
Time: 09:29:25
(UTC+01:00)

SR - Visible Passes

Search period start: 11 December 2019 00:00
Search period end: 21 December 2019 00:00
Orbit: 573 x 882 km, 66.7° (Epoch: 10 December)

Date Brightness Start Highest point End Pass type
(mag) Time Alt. Az. Time Alt. Az. Time Alt. Az.
11 Dec ? 08:40:12 10° SE 08:43:27 15° ESE 08:46:46 10° ENE visible
11 Dec ? 15:23:49 10° WNW 15:29:40 60° SSW 15:35:26 10° SE visible
11 Dec ? 17:05:53 10° WNW 17:11:08 33° SW 17:16:17 10° SSE visible
11 Dec ? 18:48:48 10° WNW 18:51:47 14° WSW 18:54:45 10° SW visible
12 Dec ? 07:53:16 10° ESE 07:54:28 11° ESE 07:55:41 10° E visible
12 Dec ? 14:34:10 10° W 14:40:04 67° SSW 14:45:55 10° ESE visible
12 Dec ? 16:16:11 10° WNW 16:21:46 42° SW 16:27:12 10° SSE visible
12 Dec ? 17:58:36 10° WNW 18:02:43 20° WSW 18:06:46 10° SSW visible
13 Dec ? 08:41:29 10° SSE 08:45:39 21° ESE 08:49:54 10° ENE visible
13 Dec ? 15:26:32 10° WNW 15:32:17 51° SSW 15:37:56 10° SE visible
13 Dec ? 17:08:42 10° WNW 17:13:32 26° WSW 17:18:16 10° S visible
14 Dec ? 07:53:25 10° SE 07:56:34 15° ESE 07:59:47 10° ENE visible
14 Dec ? 14:36:53 10° WNW 14:42:45 60° SSW 14:48:31 10° SE visible
14 Dec ? 16:18:58 10° WNW 16:24:15 34° SW 16:29:25 10° SSE visible
14 Dec ? 18:01:48 10° WNW 18:04:55 15° WSW 18:07:59 10° SW visible
15 Dec ? 07:06:48 10° ESE 07:07:36 10° E 07:08:24 10° E visible
15 Dec ? 08:43:12 10° S 08:47:58 27° SE 08:52:50 10° ENE visible
15 Dec ? 15:29:16 10° WNW 15:34:51 43° SW 15:40:18 10° SSE visible
15 Dec ? 17:11:38 10° WNW 17:15:50 20° WSW 17:19:56 10° SSW visible
16 Dec ? 07:54:40 10° SSE 07:58:46 20° ESE 08:02:57 10° ENE visible
16 Dec ? 14:39:36 10° WNW 14:45:23 52° SSW 14:51:01 10° SE visible
16 Dec ? 16:21:46 10° WNW 16:26:39 27° SW 16:31:24 10° S visible
16 Dec ? 18:06:08 10° W 18:07:01 10° W 18:07:53 10° WSW visible
17 Dec ? 07:06:38 10° SE 07:09:42 15° ESE 07:12:47 10° ENE visible
17 Dec ? 08:45:11 10° SSW 08:50:22 34° SE 08:55:39 10° ENE visible
17 Dec ? 15:32:02 10° WNW 15:37:20 35° SW 15:42:31 10° SSE visible
17 Dec ? 17:14:49 10° WNW 17:18:02 15° WSW 17:21:12 10° SW visible
18 Dec ? 07:56:20 10° S 08:01:04 26° ESE 08:05:54 10° ENE visible
18 Dec ? 14:42:20 10° WNW 14:47:57 44° SW 14:53:23 10° SSE visible
18 Dec ? 16:24:41 10° WNW 16:28:57 21° WSW 16:33:06 10° SSW visible
19 Dec ? 07:07:50 10° SSE 07:11:53 20° ESE 07:16:00 10° ENE visible
19 Dec ? 08:47:23 10° SSW 08:52:50 42° SE 08:58:24 10° ENE visible
19 Dec ? 15:34:50 10° WNW 15:39:44 28° SW 15:44:32 10° S visible
19 Dec ? 17:18:53 10° W 17:20:08 11° WSW 17:21:23 10° WSW visible
20 Dec ? 06:19:52 10° SE 06:22:49 14° ESE 06:25:48 10° ENE visible
20 Dec ? 07:58:18 10° SSW 08:03:27 33° SE 08:08:42 10° ENE visible
20 Dec ? 14:45:06 10° WNW 14:50:26 35° SW 14:55:37 10° SSE visible
20 Dec ? 16:27:50 10° WNW 16:31:10 16° WSW 16:34:25 10° SW visible
